Liberal, Kansas, United States (67901)
Lat: 37.04N, Lon: 100.92W
Wx Zone: KSZ086
Local Info
Past Weather Observations for Thursday, October 16, 2014

NOTE: This archive is for the closest National Weather Service station to Liberal. Information may differ from the station used for current weather conditions.

Click here for Long-term Archive

Time Weather Temperature Dewpoint Humidity Pressure Winds Precip Visibility
23:55
Clear
52°F / 11°C 39°F / 4°C 62% 30.01 in
(1016 mb)
NNE 8.1 mph
(NNE 13 kph)
- 10SM
23:35
Clear
52°F / 11°C 39°F / 4°C 62% 30.01 in
(1016 mb)
NE 5.8 mph
(NE 9 kph)
- 10SM
23:15
Clear
52°F / 11°C 39°F / 4°C 62% 30.01 in
(1016 mb)
NNE 4.6 mph
(NNE 7 kph)
- 10SM
22:55
Clear
54°F / 12°C 39°F / 4°C 58% 30.01 in
(1016 mb)
Calm - 10SM
22:35
Clear
54°F / 12°C 39°F / 4°C 58% 30.01 in
(1016 mb)
NE 3.5 mph
(NE 6 kph)
- 10SM
22:15
Clear
55°F / 13°C 39°F / 4°C 55% 30.01 in
(1016 mb)
Calm - 10SM
21:55
Clear
55°F / 13°C 39°F / 4°C 55% 30.01 in
(1016 mb)
Calm - 10SM
21:35
Clear
54°F / 12°C 39°F / 4°C 58% 29.98 in
(1015 mb)
Calm - 10SM
21:15
Clear
54°F / 12°C 39°F / 4°C 58% 29.98 in
(1015 mb)
Calm - 10SM
20:55
Clear
55°F / 13°C 39°F / 4°C 55% 29.98 in
(1015 mb)
Calm - 10SM
20:35
Clear
57°F / 14°C 41°F / 5°C 55% 29.98 in
(1015 mb)
NE 3.5 mph
(NE 6 kph)
- 10SM
20:15
Clear
59°F / 15°C 39°F / 4°C 48% 29.98 in
(1015 mb)
NE 4.6 mph
(NE 7 kph)
- 10SM
19:55
Clear
59°F / 15°C 39°F / 4°C 48% 29.98 in
(1015 mb)
NE 6.9 mph
(NE 11 kph)
- 10SM
19:35
Clear
66°F / 19°C 37°F / 3°C 35% 29.98 in
(1015 mb)
NE 5.8 mph
(NE 9 kph)
- 10SM
19:15
Clear
68°F / 20°C 37°F / 3°C 33% 29.98 in
(1015 mb)
NE 6.9 mph
(NE 11 kph)
- 10SM
18:55
Clear
68°F / 20°C 37°F / 3°C 33% 29.95 in
(1014 mb)
NE 5.8 mph
(NE 9 kph)
- 10SM
18:35
Clear
72°F / 22°C 37°F / 3°C 29% 29.95 in
(1014 mb)
NE 6.9 mph
(NE 11 kph)
- 10SM
18:15
Clear
73°F / 23°C 36°F / 2°C 25% 29.95 in
(1014 mb)
NE 6.9 mph
(NE 11 kph)
- 10SM
17:55
Clear
75°F / 24°C 36°F / 2°C 24% 29.92 in
(1013 mb)
ENE 6.9 mph
(ENE 11 kph)
- 10SM
17:35
Clear
79°F / 26°C 36°F / 2°C 21% 29.92 in
(1013 mb)
NE 8.1 mph
(NE 13 kph)
- 10SM
17:15
Clear
81°F / 27°C 36°F / 2°C 20% 29.92 in
(1013 mb)
NE 8.1 mph
(NE 13 kph)
- 10SM
16:55
Clear
81°F / 27°C 36°F / 2°C 20% 29.92 in
(1013 mb)
NE 8.1 mph
(NE 13 kph)
- 10SM
16:35
Clear
82°F / 28°C 36°F / 2°C 19% 29.92 in
(1013 mb)
NE 8.1 mph
(NE 13 kph)
- 10SM
16:15
Clear
82°F / 28°C 36°F / 2°C 19% 29.92 in
(1013 mb)
NE 11.5 mph
(NE 19 kph)
- 10SM
15:55
Clear
82°F / 28°C 36°F / 2°C 19% 29.92 in
(1013 mb)
N 11.5 mph
(N 19 kph)
- 10SM
15:35
Clear
82°F / 28°C 34°F / 1°C 17% 29.92 in
(1013 mb)
NNE 12.7 mph
(NNE 20 kph)
- 10SM
15:15
Clear
84°F / 29°C 36°F / 2°C 18% 29.92 in
(1013 mb)
NNE 15 mph
(NNE 24 kph)
- 10SM
14:55
Clear
82°F / 28°C 36°F / 2°C 19% 29.92 in
(1013 mb)
NE 12.7 mph
(NE 20 kph)
- 10SM
14:35
Clear
82°F / 28°C 36°F / 2°C 19% 29.92 in
(1013 mb)
NE 12.7 mph
(NE 20 kph)
- 10SM
14:15
Clear
81°F / 27°C 36°F / 2°C 20% 29.92 in
(1013 mb)
NE 15 mph
(NE 24 kph)
- 10SM
13:55
Clear
81°F / 27°C 36°F / 2°C 20% 29.92 in
(1013 mb)
NNE 16.1 mph
(NNE 26 kph)
- 10SM
13:35
Clear
82°F / 28°C 36°F / 2°C 19% 29.92 in
(1013 mb)
NNE 17.3 mph
(NNE 28 kph)
- 10SM
13:15
Clear
81°F / 27°C 36°F / 2°C 20% 29.92 in
(1013 mb)
NE 16.1 mph
(NE 26 kph)
- 10SM
12:55
Clear
82°F / 28°C 37°F / 3°C 20% 29.92 in
(1013 mb)
NE 16.1 mph
(NE 26 kph)
- 10SM
12:35
Clear
81°F / 27°C 39°F / 4°C 23% 29.92 in
(1013 mb)
NE 21.9 mph
(NE 35 kph)
- 10SM
12:15
Clear
81°F / 27°C 39°F / 4°C 23% 29.95 in
(1014 mb)
NNE 20.7 mph
(NNE 33 kph)
- 10SM
11:55
Clear
82°F / 28°C 39°F / 4°C 21% 29.95 in
(1014 mb)
NNE 21.9 mph
(NNE 35 kph)
- 10SM
11:35
Clear
81°F / 27°C 39°F / 4°C 23% 29.92 in
(1013 mb)
NNE 19.6 mph
(NNE 32 kph)
- 10SM
11:15
Clear
81°F / 27°C 39°F / 4°C 23% 29.92 in
(1013 mb)
N 23 mph
(N 37 kph)
- 10SM
10:55
Clear
79°F / 26°C 39°F / 4°C 24% 29.92 in
(1013 mb)
NNE 20.7 mph
(NNE 33 kph)
- 10SM
10:35
Clear
79°F / 26°C 43°F / 6°C 28% 29.92 in
(1013 mb)
N 21.9 mph
(N 35 kph)
- 10SM
10:15
Clear
75°F / 24°C 43°F / 6°C 31% 29.92 in
(1013 mb)
N 19.6 mph
(N 32 kph)
- 10SM
09:55
Clear
73°F / 23°C 43°F / 6°C 33% 29.92 in
(1013 mb)
N 19.6 mph
(N 32 kph)
- 10SM
09:35
Clear
73°F / 23°C 43°F / 6°C 33% 29.92 in
(1013 mb)
N 19.6 mph
(N 32 kph)
- 10SM
09:15
Clear
72°F / 22°C 45°F / 7°C 38% 29.89 in
(1012 mb)
N 16.1 mph
(N 26 kph)
- 10SM
08:55
Clear
70°F / 21°C 45°F / 7°C 40% 29.89 in
(1012 mb)
NNW 17.3 mph
(NNW 28 kph)
- 10SM
08:35
Clear
66°F / 19°C 45°F / 7°C 46% 29.89 in
(1012 mb)
NNW 15 mph
(NNW 24 kph)
- 10SM
08:15
Clear
63°F / 17°C 43°F / 6°C 49% 29.89 in
(1012 mb)
NW 15 mph
(NW 24 kph)
- 10SM
07:55
Clear
61°F / 16°C 43°F / 6°C 52% 29.86 in
(1011 mb)
NW 15 mph
(NW 24 kph)
- 10SM
07:35
Clear
57°F / 14°C 43°F / 6°C 59% 29.86 in
(1011 mb)
NW 12.7 mph
(NW 20 kph)
- 10SM
07:15
Clear
52°F / 11°C 39°F / 4°C 62% 29.83 in
(1010 mb)
NW 9.2 mph
(NW 15 kph)
- 10SM
06:55
Clear
52°F / 11°C 39°F / 4°C 62% 29.83 in
(1010 mb)
W 10.4 mph
(W 17 kph)
- 10SM
06:35
Clear
50°F / 10°C 39°F / 4°C 67% 29.83 in
(1010 mb)
SSW 10.4 mph
(SSW 17 kph)
- 10SM
06:15
Clear
48°F / 9°C 39°F / 4°C 71% 29.83 in
(1010 mb)
SSW 10.4 mph
(SSW 17 kph)
- 10SM
05:55
Clear
48°F / 9°C 39°F / 4°C 71% 29.83 in
(1010 mb)
SSW 9.2 mph
(SSW 15 kph)
- 10SM
05:35
Clear
48°F / 9°C 39°F / 4°C 71% 29.8 in
(1009 mb)
SSW 8.1 mph
(SSW 13 kph)
- 10SM
05:15
Clear
48°F / 9°C 37°F / 3°C 66% 29.8 in
(1009 mb)
SSW 5.8 mph
(SSW 9 kph)
- 10SM
04:55
Clear
50°F / 10°C 37°F / 3°C 62% 29.8 in
(1009 mb)
SW 5.8 mph
(SW 9 kph)
- 10SM
04:35
Clear
50°F / 10°C 37°F / 3°C 62% 29.8 in
(1009 mb)
SW 8.1 mph
(SW 13 kph)
- 10SM
04:15
Clear
52°F / 11°C 39°F / 4°C 62% 29.8 in
(1009 mb)
SW 8.1 mph
(SW 13 kph)
- 10SM
03:55
Clear
52°F / 11°C 39°F / 4°C 62% 29.8 in
(1009 mb)
SW 8.1 mph
(SW 13 kph)
- 10SM
03:35
Clear
52°F / 11°C 37°F / 3°C 58% 29.8 in
(1009 mb)
SW 8.1 mph
(SW 13 kph)
- 10SM
03:15
Clear
52°F / 11°C 37°F / 3°C 58% 29.8 in
(1009 mb)
SW 6.9 mph
(SW 11 kph)
- 10SM
02:55
Clear
54°F / 12°C 39°F / 4°C 58% 29.8 in
(1009 mb)
S 9.2 mph
(S 15 kph)
- 10SM
02:35
Clear
54°F / 12°C 39°F / 4°C 58% 29.8 in
(1009 mb)
S 9.2 mph
(S 15 kph)
- 10SM
02:15
Clear
54°F / 12°C 39°F / 4°C 58% 29.8 in
(1009 mb)
S 11.5 mph
(S 19 kph)
- 10SM
01:55
Clear
54°F / 12°C 39°F / 4°C 58% 29.8 in
(1009 mb)
S 13.8 mph
(S 22 kph)
- 10SM
01:35
Clear
55°F / 13°C 39°F / 4°C 55% 29.83 in
(1010 mb)
S 12.7 mph
(S 20 kph)
- 10SM
01:15
Clear
55°F / 13°C 39°F / 4°C 55% 29.83 in
(1010 mb)
S 13.8 mph
(S 22 kph)
- 10SM
00:55
Clear
55°F / 13°C 39°F / 4°C 55% 29.83 in
(1010 mb)
SSE 10.4 mph
(SSE 17 kph)
- 10SM
00:35
Clear
55°F / 13°C 39°F / 4°C 55% 29.86 in
(1011 mb)
S 12.7 mph
(S 20 kph)
- 10SM
00:15
Clear
55°F / 13°C 39°F / 4°C 55% 29.86 in
(1011 mb)
S 11.5 mph
(S 19 kph)
- 10SM
Time Weather Temperature Dewpoint Humidity Pressure Winds Precip Visibility


Weather for websites

WeatherForYou.com, LLC is not responsible for any damages or problems caused by this service. Current weather conditions are obtained from the closest station including government and personal stations which may have varying degrees of accuracy. Weather forecasts are derived from the NOAA NDFD. Like all things, this site belongs to Jesus Christ... He just trusts me to maintain it. If you have any questions or comments email webmaster@weatherforyou.com

Copyright © 2014, WeatherForYou.com LLC. All rights reserved.